Find Starlink 3050

NORAD ID: 49180 Int'l Des: 2021-082 Owner: SPXS Country: US Constellation: starlink decayed
LEOCIRCULAR

Re-entered — Mar 25, 2026

3D地球を読み込み中...

About Starlink 3050

Starlink 3050 (NORAD 49180) is a starlink constellation satellite (v1.5) launched Sep 14, 2021 by SPXS of US. It re-entered the atmosphere on Mar 25, 2026. with a mass of 297.00 kg.

Starlink 3050について

説明を読み込み中...

高度履歴

Loading altitude history...

軌道要素

1 49180U 21082BC 26084.20034426 .13125252 44702-5 18141-3 0 9997
2 49180 69.9781 215.8793 0009491 294.1172 65.9070 16.48580466250459
Epoch: Mar 25, 2026 • Age: 2219 hours

現在のステータス

Position data unavailable
打ち上げ日 Sep 14, 2021
運用期間 4.7 years
落下予定日 Mar 25, 2026
タイプ internet

技術仕様

分類 Payload
質量 297.00 kg
乾燥質量 275.00 kg
総質量 297.00 kg
長さ 0.20 m
直径 2.80 m
スパン 9.00 m
形状 Box + pan
製造者 SPXS
バスタイプ Starlink
フェーズステータス Unknown Transfer Status
所有者/国 SPXS/US

Most Searched